Regional Weather Roundup
Issued by NWS Mobile, AL

Home | Current Version | Previous Version | Text Only | Print | Product List | Glossary On
Versions: 1 2 3 4 5 6 7 8 9 10 11 12 13 14 15 16 17 18 19 20 21 22 23 24 25 26 27 28 29 30 31 32 33 34 35 36 37 38 39 40 41 42 43 44 45 46 47 48 49 50
000
ASUS44 KMOB 030710
RWRMOB
REGIONAL WEATHER ROUNDUP
NATIONAL WEATHER SERVICE MOBILE AL
200 AM CDT WED SEP 03 2014

NOTE: "FAIR" INDICATES FEW OR NO CLOUDS BELOW 12,000 FEET WITH NO
      SIGNIFICANT WEATHER AND/OR OBSTRUCTIONS TO VISIBILITY.

  * THESE STATIONS ARE PART OF THE UNIVERSITY OF SOUTH ALABAMA
    MESONET AND ARE NOT UNDER NWS OR FAA QUALITY CONTROL.

ALZ061>064-030800-
COASTAL ALABAMA

CITY           SKY/WX    TMP DP  RH WIND       PRES   REMARKS
MOBILE REG APT CLOUDY    73  72  96 CALM      30.00F
BROOKLEY FIELD CLOUDY    76  72  87 NW3       30.01F
USA CAMPUS*      N/A     73  72  94 CALM      30.00F
DOG RIVER*       N/A     75  72  88 W3        30.00F


CITY           SKY/WX    TMP DP  RH WIND       PRES   REMARKS
MOUNT VERNON*    N/A     72  70  94 CALM      30.02S
SARALAND*      NOT AVBL
BAY MINETTE*   NOT AVBL
LOXLEY*          N/A     70  70 100 CALM      30.01F
ROBERTSDALE*     N/A    N/A N/A N/A CALM      30.01F
FAIRHOPE*        N/A     75  73  94 CALM      29.99F
ELBERTA*         N/A     77  64  65 CALM      30.00F
FOLEY*         NOT AVBL
GRAND BAY*       N/A     73  70  88 N2        29.97F
DAUPHIN ISLND* NOT AVBL
BON SCOUR NWR* NOT AVBL
GULF SHORES    LGT RAIN  76  73  91 CALM      30.00F

$$

ALZ051>060-030800-
INTERIOR SOUTHWEST AND SOUTH CENTRAL ALABAMA

CITY           SKY/WX    TMP DP  RH WIND       PRES   REMARKS
GREENVILLE     CLOUDY    75  72  88 CALM      30.02F
EVERGREEN      CLOUDY    76  72  87 CALM      30.03S
CASTLEBERRY*   NOT AVBL
ATMORE*          N/A     75  75 100 CALM      30.03S
DIXIE*         NOT AVBL
ANDALUSIA/OPP  PTCLDY    78  73  84 CALM      30.03F
ANDALUSIA*     NOT AVBL
FLORALA APT    PTCLDY    74  71  91 CALM      30.05F
FLORALA*         N/A     73  72  94 CALM      30.01F

$$

FLZ001>006-030800-
WESTERN FLORIDA PANHANDLE

CITY           SKY/WX    TMP DP  RH WIND       PRES   REMARKS
PENSACOLA      MOCLDY    78  75  90 CALM      30.01S
NAS PENSACOLA  MOCLDY    78  76  93 CALM      30.01S
MILTON         MOCLDY    75  72  90 CALM      30.02S
WHTNG S FIELD  MOCLDY    78  74  87 CALM      30.02S


CITY           SKY/WX    TMP DP  RH WIND       PRES   REMARKS
WALNUT HILL*   NOT AVBL
JAY*           NOT AVBL
DUKE FIELD     PTCLDY    75  75  99 CALM      30.02F
CRESTVIEW      PTCLDY    74  72  93 CALM      30.04S FOG
VALPARAISO     NOT AVBL
DESTIN         PTCLDY    81  76  84 CALM      30.02S

$$

MSZ076-079-030800-
INTERIOR SOUTHEAST MISSISSIPPI

CITY           SKY/WX    TMP DP  RH WIND       PRES   REMARKS
LEAKESVILLE*   NOT AVBL
AGRICOLA*      NOT AVBL

$$

MARINE OBSERVATIONS

STATION/POSITION TIME  TEMP    WIND        PRES    WAVE
                       AIR SEA DIR/SP/G            HT/PER
                 (UTC) (F)     (DEG/KT/KT) (MB)    (FT/S)
PASCAGOULA       0700   78      70/  3/  4 1015.0F
PETIT BOIS ISLND 0700   79     310/  2/  3 1015.6F
GRAND BAY        0600   78     310/  5     1018.0S
KATRINA CUT      0600   81     330/  9     1016.9F
CEDAR POINT      0500   80     330/ 10     1016.6S
E DAUPHIN ISLAND 0555   82     310/  8/  9 1016.7F
MIDDLE BAY LIGHT 0600   80     310/  8     1015.2F
USCG MOBILE BAY  0700   77 87  260/  3/  4 1014.8F
STATE DOCKS      0700   78 87              1015.6F
MEAHER PARK      0600   79     300/  4     1015.9F
WEEKS BAY        0600   74                   N/A
FORT MORGAN      0700   81     350/  8/ 10 1015.2F
12 S ORANGE BCH  0700   84 86  270/  8/ 10 1016.0F   2/ 8
PENSACOLA BAY    0700   82 87  310/  2/  4 1016.6S
64 S DAUPHIN ISL 0610   83 85  270/  2/  2 1016.3
67 S FORT MORGAN 0600   82                 1016.3F

$$

SELECTED LOCATIONS ACROSS THE REGION

CITY           SKY/WX    TMP DP  RH WIND       PRES   REMARKS
NEW ORLEANS    CLOUDY    76  72  87 SE8       29.96S
GULFPORT       CLOUDY    75  73  93 E3        29.96F
PASCAGOULA AP  CLOUDY    73  71  93 CALM      29.98F
PASCAGOULA*      N/A     75  72  88 CALM      29.98F
HATTIESBURG    CLOUDY    73  71  93 N5        30.01F
LAUREL         CLOUDY    72  70  94 N3        30.03F
MERIDIAN       CLOUDY    72  70  93 CALM      30.03F
JACKSON        CLOUDY    72  71  97 E5        30.03F
MONTGOMERY     MOCLDY    76  72  87 CALM      30.02F
TROY           LGT RAIN  75  73  93 SE3       30.06R
KINSTON*       NOT AVBL
GENEVA*          N/A     75  70  83 SE15      30.08R
ASHFORD*       NOT AVBL
DOTHAN         TSTM      72  72 100 S15       30.09F FOG
PANAMA CITY    PTCLDY    76  73  91 CALM      30.02F

$$




USA.gov is the U.S. government's official web portal to all federal, state and local government web resources and services.